Find Starlink 37214

NORAD ID: 68345 Int'l Des: 2026-059 Owner: SPXS Country: US Constellation: starlink operational
LEOCIRCULAR

Live Position

Loading 3D Globe...

About Starlink 37214

Description loading...

Upcoming Passes

Passes for default location (London). Set your location on the main map for personalized predictions.

Altitude History

Loading altitude history...

Two-Line Element Set

1 68345U 26059AA 26127.20587359 .00048615 00000-0 87540-3 0 9996
2 68345 53.1598 74.4030 0001000 100.4724 259.6397 15.49351858 7160
Epoch: May 7, 2026 • Age: 10 hours

Current Status

Altitude 420.3 km
Velocity 7.66 km/s
Sub-Earth Point -6.01°S, 165.89°E
Launch Date Mar 22, 2026
Age 0.1 years
Type internet

Technical Details

Classification Payload
Mass 575.00 kg
Dry Mass 530.00 kg
Total Mass 575.00 kg
Length 0.30 m
Diameter 4.10 m
Span 29.00 m
Shape Box + pan
Manufacturer SPXS
Bus Type Starlink V2MO
Phase Status In Orbit
Owner/State SPXS/US

Most Searched